When you browse on this site, cookies collect data to enhance your experience and personalize the content and advertising you see.
Visit our Privacy Policy to learn more. By continuing to use the site, you agree to this use of cookies and data.
  • In Hungary
  • List of Countries
  • For 7 days
  • Water Temperature
  • Satellite Maps
  • Weather Map
  • News
  • Weather Widgets
  • user-avatar
    Login

    Hourly Weather Krinichnaya (Biryukove)

    Today, 22 July, Monday

    Time Temperature Precipitation Wind Pressure Humidity
    00:00 +22°C° 0 mm 3 mps 746 mmHg 62%
    01:00 +21°C° 0 mm 3 mps 746 mmHg 70%
    02:00 +20°C° 0 mm 3 mps 746 mmHg 79%
    03:00 +19°C° 0 mm 3 mps 746 mmHg 88%
    04:00 +19°C° 0 mm 3 mps 746 mmHg 88%
    05:00 +19°C° 0 mm 3 mps 746 mmHg 87%
    06:00 +19°C° 0 mm 2 mps 746 mmHg 87%
    07:00 +21°C° 0 mm 2 mps 746 mmHg 78%
    08:00 +24°C° 0 mm 2 mps 746 mmHg 69%
    09:00 +25°C° 0 mm 2 mps 745 mmHg 60%
    10:00 +27°C° 0.1 mm 2 mps 745 mmHg 55%
    11:00 +28°C° 0.1 mm 1 mps 745 mmHg 50%
    12:00 +30°C° 0.1 mm 1 mps 745 mmHg 45%
    13:00 +30°C° 0 mm 1 mps 745 mmHg 43%
    14:00 +30°C° 0 mm 2 mps 745 mmHg 41%
    15:00 +30°C° 0 mm 2 mps 745 mmHg 39%
    16:00 +30°C° 0 mm 2 mps 745 mmHg 40%
    17:00 +30°C° 0 mm 2 mps 744 mmHg 40%
    18:00 +30°C° 0 mm 1 mps 744 mmHg 40%
    19:00 +28°C° 0 mm 1 mps 744 mmHg 43%
    20:00 +27°C° 0 mm 1 mps 744 mmHg 46%
    21:00 +25°C° 0 mm 1 mps 744 mmHg 49%
    22:00 +25°C° 0 mm 1 mps 744 mmHg 51%
    23:00 +24°C° 0 mm 1 mps 744 mmHg 53%

    Tomorrow, 23 July, Tuesday

    Time Temperature Precipitation Wind Pressure Humidity
    00:00 +23°C° 0 mm 1 mps 744 mmHg 55%
    01:00 +23°C° 0 mm 1 mps 744 mmHg 55%
    02:00 +22°C° 0 mm 1 mps 743 mmHg 56%
    03:00 +22°C° 0 mm 1 mps 743 mmHg 57%
    04:00 +22°C° 0 mm 1 mps 743 mmHg 58%
    05:00 +22°C° 0 mm 1 mps 743 mmHg 60%
    06:00 +22°C° 0 mm 1 mps 743 mmHg 61%
    07:00 +24°C° 0 mm 1 mps 743 mmHg 55%
    08:00 +27°C° 0 mm 2 mps 743 mmHg 50%
    09:00 +29°C° 0 mm 2 mps 742 mmHg 44%
    10:00 +29°C° 0 mm 2 mps 742 mmHg 41%
    11:00 +30°C° 0 mm 2 mps 742 mmHg 39%
    12:00 +30°C° 0 mm 2 mps 742 mmHg 36%
    13:00 +31°C° 0 mm 2 mps 742 mmHg 35%
    14:00 +31°C° 0 mm 2 mps 741 mmHg 35%
    15:00 +31°C° 0 mm 2 mps 741 mmHg 34%
    16:00 +31°C° 0 mm 2 mps 741 mmHg 35%
    17:00 +30°C° 0 mm 2 mps 741 mmHg 36%
    18:00 +30°C° 0 mm 2 mps 741 mmHg 38%
    19:00 +29°C° 0 mm 2 mps 741 mmHg 42%
    20:00 +27°C° 0 mm 2 mps 741 mmHg 45%
    21:00 +26°C° 0 mm 2 mps 741 mmHg 49%
    22:00 +25°C° 0 mm 2 mps 741 mmHg 51%
    23:00 +25°C° 0 mm 1 mps 741 mmHg 54%

    Day after tomorrow, 24 July, Wednesday

    Time Temperature Precipitation Wind Pressure Humidity
    00:00 +24°C° 0 mm 1 mps 741 mmHg 56%
    01:00 +24°C° 0 mm 1 mps 740 mmHg 57%
    02:00 +24°C° 0 mm 1 mps 740 mmHg 59%
    03:00 +23°C° 0 mm 1 mps 740 mmHg 61%
    04:00 +23°C° 0.1 mm 1 mps 740 mmHg 63%
    05:00 +23°C° 0.1 mm 1 mps 740 mmHg 66%
    06:00 +23°C° 0.1 mm 1 mps 740 mmHg 69%
    07:00 +23°C° 0 mm 1 mps 740 mmHg 67%
    08:00 +24°C° 0 mm 1 mps 739 mmHg 65%
    09:00 +24°C° 0 mm 2 mps 739 mmHg 63%
    10:00 +25°C° 0 mm 2 mps 739 mmHg 61%
    11:00 +26°C° 0 mm 2 mps 739 mmHg 58%
    12:00 +27°C° 0 mm 3 mps 739 mmHg 55%
    13:00 +26°C° 0.2 mm 3 mps 739 mmHg 56%
    14:00 +26°C° 0.2 mm 2 mps 739 mmHg 57%
    15:00 +26°C° 0.2 mm 2 mps 739 mmHg 58%
    16:00 +25°C° 0.3 mm 3 mps 739 mmHg 64%
    17:00 +25°C° 0.3 mm 4 mps 739 mmHg 69%
    18:00 +23°C° 0.3 mm 4 mps 739 mmHg 74%
    19:00 +21°C° 0.6 mm 5 mps 739 mmHg 79%
    20:00 +20°C° 0.6 mm 5 mps 739 mmHg 84%
    21:00 +19°C° 0.6 mm 5 mps 739 mmHg 89%
    22:00 +19°C° 0.2 mm 5 mps 739 mmHg 90%
    23:00 +18°C° 0.2 mm 4 mps 739 mmHg 91%

    25 July, Thursday

    Time Temperature Precipitation Wind Pressure Humidity
    00:00 +18°C° 0.2 mm 4 mps 739 mmHg 92%
    01:00 +18°C° 0.4 mm 3 mps 739 mmHg 93%
    02:00 +18°C° 0.4 mm 3 mps 739 mmHg 94%
    03:00 +18°C° 0.4 mm 2 mps 739 mmHg 95%
    04:00 +18°C° 0.7 mm 2 mps 739 mmHg 95%
    05:00 +18°C° 0.7 mm 2 mps 739 mmHg 94%
    06:00 +18°C° 0.7 mm 2 mps 739 mmHg 93%
    07:00 +19°C° 0 mm 2 mps 740 mmHg 86%
    08:00 +21°C° 0 mm 2 mps 740 mmHg 80%
    09:00 +23°C° 0 mm 2 mps 740 mmHg 73%
    10:00 +24°C° 0 mm 2 mps 740 mmHg 65%
    11:00 +25°C° 0 mm 2 mps 740 mmHg 57%
    12:00 +27°C° 0 mm 2 mps 741 mmHg 49%
    13:00 +27°C° 0 mm 2 mps 740 mmHg 45%
    14:00 +28°C° 0 mm 3 mps 740 mmHg 41%
    15:00 +29°C° 0 mm 3 mps 740 mmHg 37%
    16:00 +28°C° 0 mm 3 mps 740 mmHg 40%
    17:00 +28°C° 0 mm 2 mps 740 mmHg 43%
    18:00 +27°C° 0 mm 2 mps 740 mmHg 46%
    19:00 +26°C° 0 mm 2 mps 740 mmHg 50%
    20:00 +25°C° 0 mm 1 mps 740 mmHg 53%
    21:00 +23°C° 0 mm 1 mps 740 mmHg 57%
    22:00 +22°C° 0 mm 1 mps 740 mmHg 60%
    23:00 +22°C° 0 mm 1 mps 740 mmHg 63%

    26 July, Friday

    Time Temperature Precipitation Wind Pressure Humidity
    00:00 +21°C° 0 mm 1 mps 740 mmHg 66%
    01:00 +21°C° 0 mm 1 mps 740 mmHg 67%
    02:00 +20°C° 0 mm 1 mps 740 mmHg 68%
    03:00 +20°C° 0 mm 1 mps 740 mmHg 69%
    04:00 +20°C° 0.2 mm 1 mps 740 mmHg 72%
    05:00 +20°C° 0.2 mm 1 mps 740 mmHg 75%
    06:00 +20°C° 0.2 mm 1 mps 740 mmHg 77%
    07:00 +22°C° 0.9 mm 1 mps 740 mmHg 71%
    08:00 +23°C° 0.9 mm 2 mps 740 mmHg 65%
    09:00 +25°C° 0.9 mm 2 mps 740 mmHg 59%
    10:00 +26°C° 0.2 mm 2 mps 740 mmHg 54%
    11:00 +27°C° 0.2 mm 2 mps 740 mmHg 49%
    12:00 +28°C° 0.2 mm 2 mps 740 mmHg 44%
    13:00 +28°C° 0 mm 2 mps 740 mmHg 43%
    14:00 +28°C° 0 mm 1 mps 740 mmHg 43%
    15:00 +28°C° 0 mm 1 mps 739 mmHg 42%
    16:00 +28°C° 0 mm 1 mps 739 mmHg 45%
    17:00 +28°C° 0 mm 2 mps 739 mmHg 47%
    18:00 +27°C° 0 mm 2 mps 739 mmHg 50%
    19:00 +25°C° 1.3 mm 2 mps 738 mmHg 59%
    20:00 +23°C° 1.3 mm 2 mps 738 mmHg 68%
    21:00 +20°C° 1.3 mm 2 mps 738 mmHg 78%
    22:00 +20°C° 0.3 mm 2 mps 738 mmHg 79%
    23:00 +19°C° 0.3 mm 2 mps 738 mmHg 81%

    27 July, Saturday

    Time Temperature Precipitation Wind Pressure Humidity
    00:00 +19°C° 0.3 mm 2 mps 738 mmHg 83%
    01:00 +19°C° 0.3 mm 2 mps 738 mmHg 86%
    02:00 +18°C° 0.3 mm 2 mps 738 mmHg 89%
    03:00 +18°C° 0.3 mm 2 mps 737 mmHg 91%
    04:00 +18°C° 0 mm 2 mps 737 mmHg 92%
    05:00 +18°C° 0 mm 3 mps 737 mmHg 92%
    06:00 +18°C° 0 mm 3 mps 737 mmHg 92%
    07:00 +20°C° 0.6 mm 3 mps 737 mmHg 86%
    08:00 +21°C° 0.6 mm 4 mps 737 mmHg 80%
    09:00 +23°C° 0.6 mm 4 mps 737 mmHg 74%
    10:00 +25°C° 1.2 mm 4 mps 737 mmHg 68%
    11:00 +26°C° 1.2 mm 3 mps 737 mmHg 61%
    12:00 +27°C° 1.2 mm 3 mps 737 mmHg 55%
    13:00 +27°C° 1 mm 3 mps 736 mmHg 54%
    14:00 +28°C° 1 mm 3 mps 736 mmHg 54%
    15:00 +28°C° 1 mm 3 mps 736 mmHg 53%
    16:00 +27°C° 1.6 mm 3 mps 736 mmHg 57%
    17:00 +26°C° 1.6 mm 3 mps 736 mmHg 61%
    18:00 +26°C° 1.6 mm 4 mps 735 mmHg 65%
    19:00 +23°C° 0.4 mm 4 mps 736 mmHg 70%
    20:00 +22°C° 0.4 mm 4 mps 736 mmHg 75%
    21:00 +20°C° 0.4 mm 4 mps 736 mmHg 80%
    22:00 +20°C° 0 mm 4 mps 736 mmHg 81%
    23:00 +19°C° 0 mm 5 mps 736 mmHg 83%
    Show more